sat.trackr.live / text

‹ back to catalog

TRANSPORTER-16 OBJECT AP

NORAD 68453 · 2026-067AP

PAYLOAD ACTIVE UNKNOWN

§ Identity

Operator
Country
TBD
Launch date
2026-03-30
Launch site
AFWTR
Launch vehicle
Mass (kg)
RCS (m²)

External: N2YO · Heavens-Above · Gunter

§ Orbital elements

Epoch: 2026-05-25T03:11:20.272992Z

Period
94.83 min
Inclination
97.4536°
Eccentricity
0.0004336
Mean motion
15.18433503 rev/d
Perigee alt
507.6 km
Apogee alt
513.6 km
Semi-major
6,888.7 km
B*
3.1821e-4
RAAN
103.9536°
Arg perigee
96.3639°
Mean anomaly
263.8089°
Rev number
844

§ Raw data

TRANSPORTER-16 OBJECT AP1 68453U 26067AP  26145.13287353  .00006486  00000+0  31821-3 0  99982 68453  97.4536 103.9536 0004336  96.3639 263.8089 15.18433503  8446

JSON: /api/v1/satellites/68453 · /tle

For live sub-satellite position, see the globe view (requires WebGL).

§ Visibility from observer

Set your observer location to see the next 7 days of passes ≥ 10°. The values pass through the URL so the page stays shareable.

No JS? Fill the form by hand. The geolocation button needs JavaScript.